Showing default

ORBCOMM FM 113, 41185

Orbit data source: Space-Track

ORBCOMM FM 113, 41185 is a payload satellite owned by Orbcomm (US) in LEO that was launched on Tue, 22 Dec 2015 UTC via an FALCON 9 launch vehicle from the Air Force Eastern Test Range (AFETR). Payload-class satellites include a variety of spacecraft equipped with specific instruments for various scientific and technological missions. These include communications satellites like Starlink; space stations such as the ISS; scientific satellites like the Hubble; Earth observation satellites from companies like Planet Labs, Umbra, and HawkEye 360; GPS; miniature CubeSats for education and research; and military/defense satellites.

Loading next visibility...
Identifier
41185, 2015-081G
Orbit
LEO
Country
Flag of USUS / ORB
Related business
Manufacturer
SNC Louisville
Mission
Partially operational Commercial Communications
Bus & Motor
SN-100A, Unknown motor
Mass
172 kg wet, 158 kg dry
Launch date (UTC)
2015-12-22 (10 years ago)
Launch vehicle
FALCON 9
Launch site
Air Force Eastern Test Range (AFETR)
Object type
Payload
Rocket body
Debris
Shape & HBR
Box + 1 Pan + 1 Ant, 5.3 m
Radar Cross Section
2.222 m², Large (>1 m²)

Expand to show TLE details & history
Last TLE update: 2 days ago

TLE from 2 days ago
0 ORBCOMM FM 113
1 41185U 15081G   26171.20126286  .00000204  00000-0  79455-4 0  9998
2 41185  47.0004 256.3723 0002404 235.0775 124.9885 14.58860795559372
Epoch: 2026-06-20T04:49Z
TLE epoch observation values (Epoch: 2026-06-20T04:49:49.111Z)
Latitude
-0.00001°
Longitude
-84.50162°
Altitude
698.046 km
Speed
7.508 km/s
True Right ascension
17h 05m 29s
True Declination
0° 00' 00"
Sunlit
Object was in full shadow at epoch
Visualization orbit readout
Latitude
Unknown
Longitude
Unknown
Altitude
Unknown
Speed
Unknown
Apparent Right ascension
Unknown
Apparent Declination
Unknown
Sunlit
N/A
Visualization observer readout
Local Sidereal Time
21:39:49
Azimuth
Unknown
Elevation
Unknown
Doppler factor
Unknown
Orbital elements
Apogee altitude
699.791 km
Perigee altitude
696.389 km
Semi-major axis
7,076.227 km
Eccentricity
0.00024
Inclination
47.0004°
RAAN
256.3723°
Arg. of periapsis
235.0775°
True anomaly
125.01107°
Mean anomaly
124.9885°
Eccentric anomaly
124.99978°
Mean motion
3.6462 °/min
Orbital period
98.73 mins
BSTAR
0.000079455
Loading maneuver chart data...
Computing Atmospheric mass density...
Loading historical data...
Loading historical data...
Loading historical data...
Loading historical data...
Loading historical data...
Loading historical data...
Loading historical data...

Documentation

Showing up to 5 results
|